• Processing (Info)

  • MPEC 2019-F90 : 2019 FM

    The following Minor Planet Electronic Circular may be linked-to from your own Web pages, but must not otherwise be redistributed electronically.

    A form allowing access to any MPEC is at the bottom of this page.


    Read MPEC 2019-F89 Read MPEC 2019-F91


    M.P.E.C. 2019-F90                                Issued 2019 Mar. 26, 20:27 UT
    
         The Minor Planet Electronic Circulars contain information on unusual
             minor planets and routine data on comets.  They are published
        on behalf of Division F of the International Astronomical Union by the
              Minor Planet Center, Smithsonian Astrophysical Observatory,
                              Cambridge, MA 02138, U.S.A.
    
                 Prepared using the Tamkin Foundation Computer Network
    
                                  MPC@CFA.HARVARD.EDU
                URL https://www.minorplanetcenter.net/    ISSN 1523-6714
    
                                        2019 FM
    
                               Revision to MPEC 2019-F88
    
    Additional Observations:
         K19F00M  C2017 04 04.56865116 58 09.530-11 47 26.32         21.7 GVEF090F51
         K19F00M  C2017 04 04.56993616 58 09.578-11 47 27.94         21.6 GVEF090F51
         K19F00M  C2017 04 04.57964516 58 09.884-11 47 38.95         21.7 GVEF090F51
         K19F00M  C2017 04 04.58093416 58 09.915-11 47 40.76         21.8 GVEF090F51
         K19F00M  C2017 04 04.59063416 58 10.196-11 47 52.05         21.8 GVEF090F51
         K19F00M  C2017 04 04.59192216 58 10.248-11 47 53.42         21.9 GVEF090F51
         K19F00M  C2017 04 25.50478 16 57 41.659-19 25 45.84         21.2 wLEF090F51
         K19F00M  C2017 04 25.52566 16 57 40.577-19 26 16.40         21.3 wLEF090F51
         K19F00M  C2017 04 25.53609 16 57 40.031-19 26 31.57         21.2 wLEF090F51
         K19F00M  C2017 05 04.55508216 48 08.600-23 07 22.85         21.0 GVEF090F51
         K19F00M  C2017 06 02.35494115 56 17.764-32 32 39.27         20.6 GVEF090F51
         K19F00M  C2019 01 09.48410 10 01 43.220+53 16 40.32         21.0 wUEF090F51
         K19F00M  C2019 01 09.49772 10 01 44.175+53 17 03.22         21.1 wUEF090F51
         K19F00M  C2019 01 09.51138 10 01 45.125+53 17 26.27         21.1 wUEF090F51
         K19F00M  C2019 01 09.52507 10 01 46.074+53 17 49.12         21.2 wUEF090F51
         K19F00M  C2019 01 11.56788 10 04 26.026+54 13 40.99         21.0 wUEF090F51
         K19F00M  C2019 01 11.58013 10 04 26.800+54 14 00.73         21.1 wUEF090F51
         K19F00M  C2019 01 11.60487 10 04 28.364+54 14 40.48         21.3 wUEF090F51
         K19F00M  C2019 01 14.47329 10 07 53.973+55 31 25.33         21.1 wUEF090F51
         K19F00M  C2019 01 14.48721 10 07 54.725+55 31 47.71         21.1 wUEF090F51
         K19F00M  C2019 01 14.50112 10 07 55.463+55 32 10.13         21.0 wUEF090F51
         K19F00M  C2019 01 14.51506 10 07 56.192+55 32 32.30         20.9 wUEF090F51
         K19F00M  C2019 01 24.49521 10 16 00.592+59 34 10.81         20.7 iUEF090F51
         K19F00M  C2019 01 24.50653 10 16 00.755+59 34 25.81         20.4 iUEF090F51
         K19F00M  C2019 01 24.51784 10 16 00.887+59 34 40.78         20.6 iUEF090F51
         K19F00M  C2019 01 24.52918 10 16 01.049+59 34 55.15         20.7 iUEF090F51
    
    Observer details:
    F51 Pan-STARRS 1, Haleakala.  Observers J. Bulger, K. Chambers, T. Lowe,
        E. Magnier, A. Schultz, M. Willman, B. Gibson, T. Goggia, S. Kahale.
        Measurers S. Chastel, M. Huber, Y. Ramanjooloo, R. Wainscoat, R. Weryk,
        K. Chambers, L. Denneau, H. Flewelling, E. Lilly, E. Magnier, C. Waters,
        J. Fairlamb, C.-C. Lin.  1.8-m Ritchey-Chretien + CCD.
    
    Orbital elements:
    2019 FM                                                  Earth MOID = 0.3271 AU
    Epoch 2019 Apr. 27.0 TT = JDT 2458600.5                 MPC
    M  18.33643              (2000.0)            P               Q
    n   0.46332750     Peri.  113.66004     -0.94966728     -0.25334564
    a   1.6540324      Node    52.18164     +0.12522733     -0.84615304
    e   0.2419284      Incl.   13.48790     +0.28714139     -0.46887207
    P   2.13           H   21.0           G   0.15           U   2
    Residuals in seconds of arc
    170404 F51  0.2+  0.1+    190111 F51  0.0   0.0     190325 I52  0.4+  0.6-
    170404 F51  0.3+  0.1-    190111 F51  0.0   0.0     190325 I52  0.0   0.4+
    170404 F51  0.2+  0.2+    190111 F51  0.1+  0.1+    190325 I52  0.3+  0.7+
    170404 F51  0.1+  0.1-    190114 F51  0.0   0.1+    190325 I52  0.3-  0.1-
    170404 F51  0.3-  0.1-    190114 F51  0.0   0.1-    190325 I52 (0.3+  3.1-)
    170404 F51  0.1-  0.0     190114 F51  0.0   0.0     190325 J95  0.2+  0.2-
    170425 F51  0.1-  0.1+    190114 F51  0.1-  0.2-    190325 J95  0.5+  0.4+
    170425 F51  0.0   0.0     190124 F51  0.2-  0.3-    190325 J95  0.4+  0.2+
    170425 F51  0.0   0.0     190124 F51  0.0   0.1-    190326 H21  0.2-  0.3-
    170504 F51  0.2-  0.1+    190124 F51  0.1-  0.1+    190326 H21  0.1-  0.1-
    170602 F51  0.0   0.0     190124 F51  0.0   0.1-    190326 I52  0.5-  0.6+
    181114 F52  0.1-  0.3-    190325 G96  0.5-  0.1+    190326 I52  0.4-  0.1-
    181114 F52  0.3+  0.0     190325 G96  0.1-  0.5-    190326 I52  0.1-  0.4+
    181114 F52  0.2+  0.5+    190325 G96  0.4-  0.3+    190326 I52  0.1-  0.3+
    181114 F52  0.7-  0.3+    190325 G96  0.3-  0.6+    190326 H01  0.1-  0.0
    181119 F52  0.2+  0.0     190325 H01  0.3-  0.1-    190326 H01  0.4-  0.0
    190109 F51  0.0   0.0     190325 H01  0.3-  0.1+    190326 H01  0.3-  0.1+
    190109 F51  0.0   0.0     190325 H01  0.2-  0.1+    190326 H01  0.3-  0.1+
    190109 F51  0.0   0.1+    190325 H01  0.3-  0.1+
    190109 F51  0.0   0.1+    190325 I52  0.8-  0.3-
    
    Ephemeris:
    2019 FM                  a,e,i = 1.65, 0.24, 13                  q = 1.2539
    Date    TT    R. A. (2000) Decl.     Delta      r     Elong.  Phase     V
    2019 02 24    10 04 07.1 +63 37 53   0.3984  1.2652   126.0    39.3    21.1
    ...
    2019 03 11    09 58 13.0 +59 38 54   0.4039  1.2551   122.0    42.1    21.2
    ...
    2019 03 19    10 00 20.9 +56 03 53   0.4104  1.2539   120.4    43.2    21.2
    ...
    2019 03 25    10 04 15.9 +52 50 06   0.4171  1.2549   119.3    43.9    21.3
    2019 03 26    10 05 05.0 +52 15 26   0.4184  1.2552   119.1    44.0    21.3
    2019 03 27    10 05 56.8 +51 40 08   0.4198  1.2555   118.9    44.1    21.3
    ...
    2019 04 02    10 11 58.0 +47 56 11   0.4292  1.2587   117.9    44.6    21.4
    ...
    2019 04 10    10 21 54.8 +42 31 15   0.4454  1.2653   116.6    45.1    21.5
    ...
    2019 04 25    10 44 36.8 +31 39 15   0.4895  1.2851   114.0    45.7    21.7
    
    A. U. Tomatic                (C) Copyright 2019 MPC           M.P.E.C. 2019-F90
    

    Read MPEC 2019-F89 Read MPEC 2019-F91


    MPEC number:

    Enter an MPEC number in one of the following forms:

    • 1997-B01 (the full form)
    • J97B01 (the packed version of the full form)
    • B01 (the abbreviated form)